IBB59QC GCLP-GCXO

Flight info

Callsign IBB59QC
Flight time 0h 16m
Altitude 15000
Route TFN
Aircraft E195/M-SDFGRY/LB1

Departure

Time 2026-04-25 11:15
Airport Gran Canaria Airport (GCLP)

Arrival

Time 2026-04-25 11:31
Airport Tenerife Norte-Ciudad de La Laguna Airport (GCXO)
Time Latitude Longitude Altitude Speed Heading
2026-04-25 10:57 27.93806 -15.38668 80 ft 0 kts 291°
2026-04-25 11:10 27.93817 -15.38700 83 ft 8 kts 290°
2026-04-25 11:11 27.93791 -15.38749 82 ft 11 kts 207°
2026-04-25 11:11 27.93685 -15.38796 83 ft 23 kts 201°
2026-04-25 11:11 27.93534 -15.38860 84 ft 24 kts 197°
2026-04-25 11:11 27.93363 -15.38930 85 ft 28 kts 200°
2026-04-25 11:12 27.93178 -15.39013 82 ft 29 kts 201°
2026-04-25 11:12 27.92978 -15.39100 82 ft 32 kts 200°
2026-04-25 11:12 27.92864 -15.39080 85 ft 16 kts 113°
2026-04-25 11:12 27.92786 -15.39036 84 ft 16 kts 199°
2026-04-25 11:13 27.92652 -15.39094 89 ft 25 kts 201°
2026-04-25 11:13 27.92453 -15.39183 97 ft 35 kts 201°
2026-04-25 11:13 27.92229 -15.39282 98 ft 34 kts 201°
2026-04-25 11:13 27.92008 -15.39378 92 ft 23 kts 200°
2026-04-25 11:14 27.91877 -15.39382 92 ft 18 kts 120°
2026-04-25 11:14 27.91887 -15.39253 88 ft 17 kts 50°
2026-04-25 11:14 27.91981 -15.39193 85 ft 14 kts 21°
2026-04-25 11:14 27.92217 -15.39088 67 ft 71 kts 21°
2026-04-25 11:15 27.92903 -15.38780 84 ft 137 kts 22°
2026-04-25 11:15 27.93894 -15.38316 531 ft 168 kts 23°
2026-04-25 11:15 27.94974 -15.37830 1007 ft 164 kts 19°
2026-04-25 11:15 27.96062 -15.37377 1542 ft 176 kts 18°
2026-04-25 11:16 27.98454 -15.36346 2838 ft 197 kts 19°
2026-04-25 11:16 27.99795 -15.35771 3341 ft 225 kts 19°
2026-04-25 11:16 28.01289 -15.35135 4088 ft 236 kts 15°
2026-04-25 11:17 28.02939 -15.35028 4866 ft 245 kts 347°
2026-04-25 11:17 28.04505 -15.35843 5738 ft 253 kts 322°
2026-04-25 11:17 28.05661 -15.37355 6596 ft 264 kts 299°
2026-04-25 11:17 28.06408 -15.39306 7540 ft 268 kts 293°
2026-04-25 11:18 28.07099 -15.41251 8468 ft 272 kts 293°
2026-04-25 11:18 28.07804 -15.43254 9382 ft 277 kts 298°
2026-04-25 11:18 28.08799 -15.45131 10343 ft 280 kts 304°
2026-04-25 11:18 28.09868 -15.46989 11245 ft 283 kts 303°
2026-04-25 11:19 28.10947 -15.48893 11949 ft 296 kts 303°
2026-04-25 11:19 28.12072 -15.50868 12055 ft 298 kts 303°
2026-04-25 11:19 28.13194 -15.52835 12098 ft 296 kts 303°
2026-04-25 11:19 28.14270 -15.54816 12106 ft 294 kts 301°
2026-04-25 11:20 28.15334 -15.56792 12104 ft 293 kts 302°
2026-04-25 11:20 28.16392 -15.58761 12097 ft 292 kts 302°
2026-04-25 11:20 28.17450 -15.60721 12098 ft 291 kts 302°
2026-04-25 11:20 28.18504 -15.62683 12103 ft 291 kts 302°
2026-04-25 11:21 28.19557 -15.64636 12108 ft 290 kts 302°
2026-04-25 11:21 28.20606 -15.66587 12114 ft 290 kts 302°
2026-04-25 11:21 28.21658 -15.68542 12109 ft 291 kts 302°
2026-04-25 11:21 28.22709 -15.70495 12101 ft 290 kts 302°
2026-04-25 11:22 28.23758 -15.72451 12089 ft 290 kts 302°
2026-04-25 11:22 28.24452 -15.73742 12081 ft 289 kts 302°
2026-04-25 11:22 28.25851 -15.76350 12082 ft 290 kts 302°
2026-04-25 11:22 28.26897 -15.78299 12080 ft 289 kts 302°
2026-04-25 11:23 28.27942 -15.80246 12082 ft 289 kts 302°
2026-04-25 11:23 28.28985 -15.82190 12079 ft 288 kts 302°
2026-04-25 11:23 28.30027 -15.84134 12078 ft 288 kts 302°
2026-04-25 11:23 28.31055 -15.86053 12071 ft 278 kts 302°
2026-04-25 11:24 28.32041 -15.87897 11878 ft 269 kts 302°
2026-04-25 11:24 28.32940 -15.89720 11664 ft 262 kts 294°
2026-04-25 11:24 28.33621 -15.91608 11459 ft 255 kts 295°
2026-04-25 11:24 28.34326 -15.93430 11279 ft 249 kts 294°
2026-04-25 11:25 28.35032 -15.95277 10835 ft 262 kts 295°
2026-04-25 11:25 28.35778 -15.97215 10286 ft 273 kts 295°
2026-04-25 11:25 28.36540 -15.99193 9607 ft 279 kts 295°
2026-04-25 11:25 28.37315 -16.01195 8838 ft 275 kts 295°
2026-04-25 11:26 28.38005 -16.03205 8082 ft 271 kts 291°
2026-04-25 11:26 28.38652 -16.05202 7350 ft 268 kts 292°
2026-04-25 11:26 28.39303 -16.07171 6636 ft 265 kts 292°
2026-04-25 11:26 28.39950 -16.09120 5881 ft 263 kts 293°
2026-04-25 11:27 28.40594 -16.11060 5154 ft 262 kts 292°
2026-04-25 11:27 28.41197 -16.12880 5313 ft 229 kts 293°
2026-04-25 11:27 28.41753 -16.14532 5838 ft 230 kts 294°
2026-04-25 11:27 28.42163 -16.15704 5375 ft 243 kts 293°
2026-04-25 11:28 28.42944 -16.18054 4776 ft 233 kts 292°
2026-04-25 11:28 28.43490 -16.19718 4458 ft 218 kts 294°
2026-04-25 11:28 28.44023 -16.21305 4156 ft 213 kts 294°
2026-04-25 11:28 28.44537 -16.22860 3875 ft 208 kts 295°
2026-04-25 11:29 28.45035 -16.24371 3608 ft 197 kts 295°
2026-04-25 11:29 28.45497 -16.25764 3351 ft 180 kts 296°
2026-04-25 11:29 28.45919 -16.27037 3109 ft 166 kts 295°
2026-04-25 11:29 28.46317 -16.28241 2892 ft 160 kts 296°
2026-04-25 11:30 28.46705 -16.29418 2664 ft 158 kts 295°
2026-04-25 11:30 28.47086 -16.30564 2453 ft 152 kts 295°
2026-04-25 11:30 28.47457 -16.31686 2227 ft 151 kts 292°
2026-04-25 11:30 28.47821 -16.32810 2054 ft 151 kts 292°
2026-04-25 11:31 28.48173 -16.33864 2046 ft 129 kts 290°
2026-04-25 11:31 28.48424 -16.34631 2071 ft 79 kts 290°
2026-04-25 11:31 28.48571 -16.35073 2087 ft 47 kts 291°
2026-04-25 11:31 28.48694 -16.35298 2081 ft 10 kts 308°
2026-04-25 11:32 28.48755 -16.35306 2074 ft 8 kts 54°
2026-04-25 11:32 28.48752 -16.35268 2076 ft 4 kts 110°
2026-04-25 11:32 28.48737 -16.35224 2078 ft 10 kts 111°
2026-04-25 11:32 28.48698 -16.35104 2081 ft 21 kts 108°
2026-04-25 11:33 28.48645 -16.34950 2083 ft 21 kts 112°
2026-04-25 11:33 28.48613 -16.34802 2077 ft 14 kts 59°
2026-04-25 11:33 28.48682 -16.34743 2073 ft 7 kts 37°
2026-04-25 11:33 28.48696 -16.34731 2072 ft 0 kts 36°